Weather in Sofiysk

Russia / Khabarovsk Krai     51°34′15″N   139°50′51″E
temp.,
°C
wind,
m/s
gust,
m/s
humid.,
%
clouds,
%
prec.,
mm/h
press.,
hPa
HPBL,
m
28 july, wed
wed2801:00+20sw1196100 0.0 100511
04:00+20ssw1197100 0.3 100512
07:00+21e009753 0.3 100425
10:00+25ene118054 0.3 1004391
13:00+29n226538 0.2 10021010
16:00+28nne216871 0.6 1001643
19:00+24ene1191100 3.8 100114
22:00+22sse2198100 9.0 100232
29 july, thu
thu2901:00+22sse1198100 0.0 100120
04:00+21se1198100 1.1 100026
07:00+22s0196100 0.1 100090
10:00+27wnw1176100 0.1 999611
13:00+28nw237099 0.1 9991033
16:00+29n1169100 1.1 998731
19:00+24ne2290100 2.3 99930
22:00+21nne2298100 3.0 100049
30 july, fri
fri3001:00+19nne2399100 1.1 1000171
04:00+17nne3499100 7.4 1000280
07:00+16n2399100 4.6 1001209
10:00+14n3598100 6.1 1002310
13:00+14n3597100 0.6 1004397
16:00+14n3594100 0.9 1006441
19:00+14n2494100 0.1 1007379
22:00+13n2295100 0.1 1009189
31 july, sat
sat3101:00+13nne1295100 0.0 1010142
04:00+13nne1296100 0.1 1011189
07:00+13ene2396100 0.1 1013264
10:00+12ene3491100 0.2 1014373
13:00+13ene3484100 0.0 1015602
16:00+13ene3479100 0.1 1015650
19:00+13ene3481100 0.0 1015554
22:00+11ene2490100 0.2 1016223
1 august, sun
sun101:00+10ene2496100 0.6 1016216
04:00+10ne2396100 1.1 1016160
07:00+10ne1297100 0.4 1017171
10:00+11ene1194100 0.4 1016276
13:00+12ne2292100 0.1 1016398
16:00+12ne1191100 0.1 1016315
19:00+12ne1195100 0.0 1016100
22:00+12ese1196100 0.0 101547